Location: Windsor
(43.2292°N, 89.3015°W)
Time: 06:27:48
(UTC+00:00)

Tiangong - Pass Details

Date: 30 January 2022
Orbit: 386 x 389 km, 41.5° (Epoch: 22 May)

Event Time Altitude Azimuth Distance (km) Brightness Sun altitude
Rises 23:53:21 0° 238° (WSW) 2,338 6.8 -9.0°
Reaches altitude 10° 23:55:32 10° 230° (SW) 1,482 5.2 -9.4°
Maximum altitude 23:58:39 36° 162° (SSE) 675 2.2 -10.0°
Enters shadow 00:01:12 14° 98° (E) 1,277 3.1 -10.4°
